Tracking 30995 objects as of 5-Jul-2025
HD Live streaming from Space Station
objects crossing your sky now

OPS 4682 DEB

Track OPS 4682 DEB now!
10-day predictions


NORAD ID: 38414
Int'l Code: 1965-027DT
Perigee: 1,249.1 km
Apogee: 1,306.0 km
Inclination: 90.2 °
Period: 111.0 minutes
Semi major axis: 7648 km
RCS: 0.0071 m2 (small)
Launch date: April 3, 1965
Source: United States (US)
Launch site: AIR FORCE WESTERN TEST RANGE (AFWTR)

Note: This is SATELLITE DEBRIS
Your satellite tracking list
Your tracking list is empty




NASA's NSSDC Master Catalog

Two Line Element Set (TLE):
1 38414U 65027DT  25185.13938648  .00000441  00000-0  14826-2 0  9995
2 38414  90.2375 344.8698 0037182 308.2735  51.5043 12.97879593 95652
Source of the keplerian elements: AFSPC